{"data":{"norad_id":67824,"intl_designator":"2026-033D","name":"STARLINK-36647","alt_names":[],"object_type":"PAYLOAD","status":"ACTIVE","operator":null,"country":"US","launch_date":"2026-02-16","launch_site_code":"AFETR","launch_vehicle":null,"mission":null,"orbit_class":"UNKNOWN","rcs_meters":null,"size_class":null,"mass_kg":null,"dimensions":null,"purposes":["comms"],"wikipedia_slug":null,"has_3d_model":false,"image_url":null,"decayed_at":null,"tle_current":{"epoch":"2026-09-19T00:36:23.207040Z","epoch_age_seconds":193941,"freshness":"STALE","line1":"1 67824U 26033D   26262.02526860  .00012875  00000+0  47642-3 0  9996","line2":"2 67824  42.9991 255.0749 0000521 293.7346  66.3451 15.27589276 34247","mean_motion":15.27589276,"eccentricity":5.21e-5,"inclination_deg":42.9991,"raan_deg":255.0749,"arg_perigee_deg":293.7346,"mean_anomaly_deg":66.3451,"bstar":0.00047642,"rev_number":3424,"period_min":94.266176296462,"perigee_km":482.66385415068,"apogee_km":483.37878684768,"semimajor_km":6861.1583204992,"source":"CELESTRAK","updated_at":"2026-09-20T09:00:43.667510Z"}}}